COSMOS 1058

Satellite information

Favourite Embed

Satellite Type and Status

PAYLOADIN ORBIT

Key statistics

Satellite COSMOS 1058 at a glance.

Uptime

17176

Days in orbit

Revolutions

≈ 12.4

Per day

Orbit

LEO

Low Earth Orbit

Inclination

74.0

Latest

Satellite identification and parameters

Extended collection of information and parameters for COSMOS 1058.

Object identification

Identified? True

Debris? False

Object name: COSMOS 1058

International designator: 1978-109H

Object number (NORAD): 11135

Object ID (CCSDS): 11135

Country: COMMONWEALTH OF INDEPENDENT STATES (CIS)

Current information (Y/N): Y

RCS size: MEDIUM

Orbital parameters

Period: 116.176 minutes

Inclination: 74.0174 deg

SMA: 7886.859 km

Apoapsis: 1537.33 km

Periapsis: 1480.118 km

RAAN: 283.2236 deg

Eccentricy: 0.00362701

Argument of periapsis: 157.338 deg

Mean anomaly: 15.4162 deg

Mean motion: 12.39500376 rev/day

Mean motion (dot): -0.00000011 rev/day2

B* drag term: 0.000035161083 1/REarth

Two-line elements (TLE)

Creation date: Dec. 14, 2025, 3:07 a.m.

Reference frame: TEME

Reference center: EARTH

Epoch: Dec. 13, 2025, 2 p.m. UTC

TLE line 0: 0 COSMOS 1058

TLE line 1: 1 11135U 78109H 25347.58353660 -.00000011 00000-0 35161-4 0 9996

TLE line 2: 2 11135 74.0174 283.2236 0036270 157.3380 15.4162 12.39500376127664

Live tracking on map

Real-time ground track for satellite COSMOS 1058.

In-orbit conjunctions

A list of the most updated potential collisions computed for object COSMOS 1058.

Target Orbit TCA Probability of collision Miss distance Type
SL-14 DEB LEO 2025-11-06 18:35:46 0.0007624153 326.0 (m) DEBRIS

Associated space launch

Military communications satellites

COSMOS 1058 was lifted into orbit during the mission ‘Kosmos-3M | Strela-1M 161-168’, on board a Kosmos-3M space rocket.

The launch took place on Dec. 5, 1978, 6:12 p.m. from 132/2.

For more information about the launch, click the button.

Launch to space Kosmos-3M | Strela-1M 161-168
Kosmos-3M | Strela-1M 161-168

Agency: N/A

Status: Launch Successful

Launch date: Dec. 5, 1978, 6:12 p.m. UTC

Rocket: Kosmos-3M

Launch pad: 132/2

Location: Plesetsk Cosmodrome, Russian Federation

...

Latest news about this satellite

There are no fresh news available about this satellite. Check back as we update our databases every day.


Newsletter sign-up

Weekly statistics, charts and insights to help you stay on top of the space industry.